Location: Unspecified
(0.0000°N, 0.0000°E)
Time: 17:59:52
(UTC+00:00)

SRMSAT - Pass Details

Date: 23 July 2019
Orbit: 848 x 865 km, 20.0° (Epoch: 07 December)

Event Time Altitude Azimuth Distance (km) Brightness Sun altitude
Rises 18:59:07 0° 285° (WNW) 3,426 ? -12.3°
Reaches altitude 10° 19:02:31 10° 303° (WNW) 2,489 ? -13.1°
Maximum altitude 19:06:31 18° 346° (NNW) 1,968 ? -14.1°
Drops below altitude 10° 19:10:31 10° 28° (NNE) 2,486 ? -15.0°
Sets 19:13:56 0° 46° (NE) 3,421 ? -15.8°
